CGAAS EGLC-EGNS

Flight info

Callsign CGAAS
Flight time 0h 49m
Altitude 38000
Route BPK UN601 LESTA UP6 RODOL UL28 AGLIL M146 LUSOD DCT IOM
Aircraft C25B/M-SDE2E3FGHRWXY/LB1

Departure

Time 2026-04-28 13:42
Airport London City Airport (EGLC)

Arrival

Time 2026-04-28 14:31
Airport Isle of Man Airport (EGNS)
Time Latitude Longitude Altitude Speed Heading
2026-04-28 13:18 51.50492 0.04088 20 ft 0 kts 354°
2026-04-28 13:23 51.50491 0.04088 20 ft 0 kts 354°
2026-04-28 13:32 51.50490 0.04088 20 ft 0 kts 354°
2026-04-28 13:36 51.50494 0.04088 20 ft 5 kts 358°
2026-04-28 13:36 51.50518 0.04120 21 ft 7 kts 86°
2026-04-28 13:36 51.50509 0.04219 20 ft 10 kts 114°
2026-04-28 13:37 51.50507 0.04224 20 ft 10 kts 114°
2026-04-28 13:37 51.50500 0.04257 21 ft 11 kts 101°
2026-04-28 13:37 51.50499 0.04331 20 ft 12 kts 88°
2026-04-28 13:37 51.50499 0.04343 20 ft 12 kts 93°
2026-04-28 13:38 51.50497 0.04384 20 ft 0 kts 115°
2026-04-28 13:39 51.50493 0.04398 20 ft 6 kts 113°
2026-04-28 13:39 51.50493 0.04439 20 ft 2 kts 37°
2026-04-28 13:39 51.50494 0.04440 20 ft 0 kts 26°
2026-04-28 13:40 51.50501 0.04444 20 ft 3 kts 12°
2026-04-28 13:40 51.50545 0.04444 20 ft 6 kts 14°
2026-04-28 13:40 51.50556 0.04465 21 ft 0 kts 95°
2026-04-28 13:42 51.50544 0.04821 20 ft 96 kts 91°
2026-04-28 13:42 51.50483 0.06503 305 ft 188 kts 86°
2026-04-28 13:42 51.50449 0.08548 1486 ft 178 kts 85°
2026-04-28 13:42 51.50554 0.10705 2108 ft 203 kts 72°
2026-04-28 13:43 51.51325 0.12369 3541 ft 187 kts 32°
2026-04-28 13:43 51.52577 0.13068 4573 ft 202 kts 11°
2026-04-28 13:43 51.54094 0.12868 3559 ft 268 kts 343°
2026-04-28 13:43 51.55570 0.11185 3076 ft 260 kts 320°
2026-04-28 13:44 51.56595 0.08925 2909 ft 239 kts 309°
2026-04-28 13:44 51.57505 0.06875 2851 ft 212 kts 319°
2026-04-28 13:44 51.58649 0.05555 2807 ft 204 kts 339°
2026-04-28 13:44 51.59989 0.04457 2828 ft 230 kts 336°
2026-04-28 13:45 51.61404 0.02982 2922 ft 248 kts 332°
2026-04-28 13:45 51.62836 0.01492 3083 ft 256 kts 334°
2026-04-28 13:45 51.64344 -0.00001 4346 ft 252 kts 334°
2026-04-28 13:45 51.65913 -0.01552 5094 ft 285 kts 334°
2026-04-28 13:46 51.67644 -0.03287 5106 ft 286 kts 333°
2026-04-28 13:46 51.69265 -0.04964 5116 ft 269 kts 334°
2026-04-28 13:46 51.70827 -0.06506 5116 ft 258 kts 335°
2026-04-28 13:46 51.72351 -0.08032 5311 ft 263 kts 334°
2026-04-28 13:47 51.73882 -0.09587 6503 ft 263 kts 334°
2026-04-28 13:47 51.75521 -0.11181 7136 ft 283 kts 335°
2026-04-28 13:47 51.77223 -0.12774 8027 ft 281 kts 334°
2026-04-28 13:47 51.78890 -0.14395 8120 ft 285 kts 334°
2026-04-28 13:48 51.80654 -0.16053 8992 ft 297 kts 334°
2026-04-28 13:48 51.82509 -0.17818 9523 ft 323 kts 334°
2026-04-28 13:48 51.84531 -0.19747 9950 ft 350 kts 333°
2026-04-28 13:48 51.86706 -0.21826 10258 ft 372 kts 333°
2026-04-28 13:49 51.88943 -0.23979 10938 ft 375 kts 333°
2026-04-28 13:49 51.91012 -0.25956 11001 ft 352 kts 333°
2026-04-28 13:50 51.91030 -0.25974 11000 ft 352 kts 333°
2026-04-28 13:50 51.93076 -0.27947 10996 ft 333 kts 333°
2026-04-28 13:50 51.95038 -0.29810 10993 ft 320 kts 334°
2026-04-28 13:51 51.96928 -0.31622 10991 ft 311 kts 334°
2026-04-28 13:51 51.98769 -0.33396 10994 ft 304 kts 334°
2026-04-28 13:51 52.00569 -0.35127 10996 ft 298 kts 333°
2026-04-28 13:51 52.02129 -0.37391 11183 ft 310 kts 311°
2026-04-28 13:52 52.03409 -0.40122 12644 ft 302 kts 312°
2026-04-28 13:52 52.04704 -0.42857 13813 ft 309 kts 311°
2026-04-28 13:52 52.06005 -0.45708 14838 ft 317 kts 311°
2026-04-28 13:52 52.07317 -0.48630 15885 ft 322 kts 311°
2026-04-28 13:53 52.08627 -0.51624 16910 ft 328 kts 311°
2026-04-28 13:53 52.09934 -0.54665 17933 ft 335 kts 311°
2026-04-28 13:53 52.11299 -0.57890 18319 ft 360 kts 311°
2026-04-28 13:53 52.12738 -0.61292 18328 ft 366 kts 310°
2026-04-28 13:54 52.14182 -0.64695 18330 ft 365 kts 311°
2026-04-28 13:54 52.15627 -0.68109 18326 ft 365 kts 313°
2026-04-28 13:54 52.17453 -0.70784 18310 ft 347 kts 338°
2026-04-28 13:54 52.19636 -0.72337 18313 ft 340 kts 347°
2026-04-28 13:55 52.21865 -0.73628 18318 ft 339 kts 349°
2026-04-28 13:55 52.24107 -0.74819 18451 ft 339 kts 351°
2026-04-28 13:55 52.26363 -0.75998 19204 ft 340 kts 351°
2026-04-28 13:55 52.28614 -0.77183 20009 ft 341 kts 351°
2026-04-28 13:56 52.30881 -0.78396 20807 ft 344 kts 351°
2026-04-28 13:56 52.33160 -0.79641 21588 ft 347 kts 350°
2026-04-28 13:56 52.35336 -0.81604 22263 ft 368 kts 334°
2026-04-28 13:56 52.37436 -0.84009 23013 ft 369 kts 335°
2026-04-28 13:57 52.39559 -0.86429 23765 ft 374 kts 334°
2026-04-28 13:57 52.41683 -0.88926 24387 ft 378 kts 335°
2026-04-28 13:57 52.43811 -0.91395 24975 ft 381 kts 335°
2026-04-28 13:57 52.45988 -0.93913 25557 ft 385 kts 335°
2026-04-28 13:58 52.48199 -0.96460 26146 ft 390 kts 335°
2026-04-28 13:58 52.50418 -0.99049 26711 ft 393 kts 335°
2026-04-28 13:58 52.52656 -1.01651 27326 ft 393 kts 335°
2026-04-28 13:58 52.54889 -1.04257 27921 ft 396 kts 335°
2026-04-28 13:59 52.57152 -1.06888 28417 ft 400 kts 336°
2026-04-28 13:59 52.59432 -1.09551 28917 ft 404 kts 336°
2026-04-28 13:59 52.61733 -1.12244 29387 ft 407 kts 336°
2026-04-28 13:59 52.64056 -1.14961 29852 ft 411 kts 336°
2026-04-28 14:00 52.64809 -1.15847 29998 ft 412 kts 336°
2026-04-28 14:01 52.66317 -1.17617 30288 ft 413 kts 336°
2026-04-28 14:01 52.68513 -1.20185 32345 ft 351 kts 337°
2026-04-28 14:01 52.70489 -1.22598 33438 ft 341 kts 336°
2026-04-28 14:01 52.72425 -1.24930 34061 ft 352 kts 339°
2026-04-28 14:02 52.74531 -1.27224 34147 ft 374 kts 339°
2026-04-28 14:02 52.76725 -1.29759 34255 ft 392 kts 335°
2026-04-28 14:02 52.78936 -1.32370 34823 ft 389 kts 338°
2026-04-28 14:02 52.81227 -1.34770 35248 ft 390 kts 339°
2026-04-28 14:03 52.83562 -1.37110 35662 ft 394 kts 338°
2026-04-28 14:03 52.85850 -1.39711 36061 ft 404 kts 332°
2026-04-28 14:03 52.88070 -1.42604 36447 ft 408 kts 330°
2026-04-28 14:03 52.90334 -1.45433 36821 ft 408 kts 332°
2026-04-28 14:04 52.92656 -1.48149 37185 ft 410 kts 333°
2026-04-28 14:04 52.94953 -1.50878 37515 ft 413 kts 331°
2026-04-28 14:04 52.97270 -1.53725 37998 ft 411 kts 330°
2026-04-28 14:04 52.99566 -1.56553 38395 ft 413 kts 330°
2026-04-28 14:05 53.04180 -1.62130 38388 ft 406 kts 330°
2026-04-28 14:05 53.08682 -1.67639 38398 ft 399 kts 331°
2026-04-28 14:06 53.13133 -1.73076 38397 ft 394 kts 331°
2026-04-28 14:06 53.17526 -1.78466 38399 ft 391 kts 331°
2026-04-28 14:07 53.21851 -1.83950 38406 ft 393 kts 324°
2026-04-28 14:07 53.25276 -1.91156 38411 ft 407 kts 306°
2026-04-28 14:08 53.27819 -1.99640 38420 ft 408 kts 303°
2026-04-28 14:08 53.30351 -2.08115 38419 ft 407 kts 302°
2026-04-28 14:09 53.32858 -2.16596 38424 ft 406 kts 302°
2026-04-28 14:09 53.35357 -2.25060 38424 ft 406 kts 301°
2026-04-28 14:10 53.37193 -2.34100 38422 ft 411 kts 294°
2026-04-28 14:10 53.38957 -2.43213 38422 ft 411 kts 293°
2026-04-28 14:11 53.40675 -2.52340 38424 ft 410 kts 293°
2026-04-28 14:11 53.42386 -2.61403 38422 ft 407 kts 294°
2026-04-28 14:12 53.43226 -2.65837 38415 ft 392 kts 294°
2026-04-28 14:12 53.44053 -2.70258 37248 ft 407 kts 294°
2026-04-28 14:12 53.44937 -2.74928 35684 ft 430 kts 295°
2026-04-28 14:12 53.45836 -2.79760 34488 ft 437 kts 295°
2026-04-28 14:13 53.46700 -2.84512 34234 ft 416 kts 295°
2026-04-28 14:13 53.47543 -2.89065 33875 ft 402 kts 296°
2026-04-28 14:13 53.48371 -2.93481 33514 ft 391 kts 296°
2026-04-28 14:13 53.49172 -2.97789 33160 ft 382 kts 296°
2026-04-28 14:14 53.49946 -3.02001 32817 ft 373 kts 296°
2026-04-28 14:14 53.50704 -3.06134 32477 ft 367 kts 296°
2026-04-28 14:14 53.51450 -3.10168 32127 ft 366 kts 296°
2026-04-28 14:14 53.52198 -3.14240 31811 ft 364 kts 295°
2026-04-28 14:15 53.52937 -3.18304 31482 ft 362 kts 295°
2026-04-28 14:15 53.53678 -3.22352 31155 ft 361 kts 295°
2026-04-28 14:15 53.54410 -3.26385 30828 ft 360 kts 295°
2026-04-28 14:15 53.55144 -3.30409 30497 ft 359 kts 295°
2026-04-28 14:16 53.55868 -3.34427 30137 ft 358 kts 295°
2026-04-28 14:16 53.56591 -3.38413 29804 ft 356 kts 295°
2026-04-28 14:16 53.57307 -3.42384 29479 ft 353 kts 295°
2026-04-28 14:16 53.58262 -3.46090 29156 ft 339 kts 308°
2026-04-28 14:17 53.59537 -3.49362 28853 ft 330 kts 316°
2026-04-28 14:17 53.60902 -3.52544 28562 ft 342 kts 315°
2026-04-28 14:17 53.62309 -3.55872 28301 ft 355 kts 314°
2026-04-28 14:17 53.63770 -3.59256 28052 ft 361 kts 313°
2026-04-28 14:18 53.65121 -3.62852 26944 ft 368 kts 311°
2026-04-28 14:18 53.66536 -3.66595 25582 ft 383 kts 308°
2026-04-28 14:18 53.67846 -3.70462 24798 ft 376 kts 306°
2026-04-28 14:18 53.69115 -3.74218 23944 ft 370 kts 307°
2026-04-28 14:19 53.70418 -3.77921 22976 ft 364 kts 308°
2026-04-28 14:19 53.71706 -3.81575 22049 ft 359 kts 308°
2026-04-28 14:19 53.72965 -3.85192 21154 ft 355 kts 307°
2026-04-28 14:19 53.74200 -3.88788 20292 ft 351 kts 307°
2026-04-28 14:20 53.75016 -3.91128 19737 ft 348 kts 307°
2026-04-28 14:20 53.76233 -3.94647 18925 ft 344 kts 307°
2026-04-28 14:20 53.77438 -3.98123 18050 ft 340 kts 307°
2026-04-28 14:20 53.78623 -4.01561 17205 ft 336 kts 306°
2026-04-28 14:21 53.79792 -4.04960 16383 ft 332 kts 307°
2026-04-28 14:21 53.80949 -4.08308 15593 ft 328 kts 306°
2026-04-28 14:21 53.82086 -4.11630 14824 ft 324 kts 306°
2026-04-28 14:21 53.83215 -4.14899 14070 ft 320 kts 306°
2026-04-28 14:22 53.84324 -4.18155 13266 ft 317 kts 305°
2026-04-28 14:22 53.85426 -4.21360 12497 ft 312 kts 305°
2026-04-28 14:22 53.86507 -4.24528 11744 ft 309 kts 304°
2026-04-28 14:22 53.87584 -4.27664 11017 ft 306 kts 304°
2026-04-28 14:23 53.88627 -4.30741 10325 ft 304 kts 304°
2026-04-28 14:23 53.89682 -4.33831 9579 ft 300 kts 304°
2026-04-28 14:23 53.90722 -4.36889 8871 ft 297 kts 303°
2026-04-28 14:23 53.91746 -4.39907 8175 ft 293 kts 303°
2026-04-28 14:24 53.92761 -4.42889 7599 ft 288 kts 303°
2026-04-28 14:24 53.93734 -4.45777 7248 ft 276 kts 303°
2026-04-28 14:24 53.94681 -4.48556 6894 ft 268 kts 303°
2026-04-28 14:24 53.95584 -4.51240 6534 ft 262 kts 303°
2026-04-28 14:25 53.96485 -4.53887 6187 ft 256 kts 303°
2026-04-28 14:25 53.97355 -4.56485 5852 ft 251 kts 303°
2026-04-28 14:25 53.98220 -4.59031 5528 ft 247 kts 303°
2026-04-28 14:25 53.99063 -4.61552 5202 ft 243 kts 302°
2026-04-28 14:26 53.99902 -4.64029 4874 ft 241 kts 302°
2026-04-28 14:26 54.00724 -4.66494 4558 ft 239 kts 302°
2026-04-28 14:26 54.01550 -4.68925 4239 ft 236 kts 303°
2026-04-28 14:26 54.02357 -4.71352 3928 ft 235 kts 302°
2026-04-28 14:27 54.03161 -4.73763 3616 ft 234 kts 303°
2026-04-28 14:27 54.03968 -4.76154 3302 ft 232 kts 302°
2026-04-28 14:27 54.04769 -4.78533 2891 ft 232 kts 304°
2026-04-28 14:27 54.05975 -4.80276 2311 ft 232 kts 343°
2026-04-28 14:28 54.07512 -4.80184 2003 ft 214 kts 26°
2026-04-28 14:28 54.08405 -4.78613 1990 ft 171 kts 70°
2026-04-28 14:28 54.08311 -4.76821 1988 ft 147 kts 119°
2026-04-28 14:28 54.07723 -4.75519 1814 ft 137 kts 112°
2026-04-28 14:29 54.07430 -4.74054 1147 ft 128 kts 105°
2026-04-28 14:29 54.07350 -4.72618 954 ft 114 kts 88°
2026-04-28 14:29 54.07348 -4.71346 744 ft 112 kts 84°
2026-04-28 14:29 54.07434 -4.70036 676 ft 110 kts 80°
2026-04-28 14:30 54.07554 -4.68756 653 ft 107 kts 77°
2026-04-28 14:30 54.07765 -4.67551 652 ft 106 kts 68°
2026-04-28 14:30 54.07897 -4.66336 432 ft 104 kts 89°
2026-04-28 14:30 54.07991 -4.65135 255 ft 100 kts 78°
2026-04-28 14:31 54.08125 -4.64009 114 ft 96 kts 78°
2026-04-28 14:31 54.08263 -4.62915 48 ft 88 kts 78°
2026-04-28 14:31 54.08371 -4.62034 35 ft 57 kts 79°
2026-04-28 14:31 54.08427 -4.61557 37 ft 38 kts 79°
2026-04-28 14:32 54.08498 -4.61431 37 ft 13 kts 336°
2026-04-28 14:32 54.08535 -4.61542 38 ft 13 kts 279°